Location: Gwatt
(46.7204°N, 7.6223°E)
Time: 14:45:34
(UTC+00:00)

Tiros 1 despin weight - All Passes

Search period start: 23 January 2021 00:00
Search period end: 02 February 2021 00:00
Orbit: 594 x 641 km, 48.2° (Epoch: 22 January)

Date Brightness Start Highest point End Pass type
(mag) Time Alt. Az. Time Alt. Az. Time Alt. Az.
23 Jan - 13:19:24 10° S 13:22:48 21° SE 13:26:11 10° E daylight
23 Jan - 14:59:20 10° WSW 15:03:51 68° SSE 15:08:17 10° ENE daylight
23 Jan - 16:40:57 10° W 16:45:27 73° N 16:49:54 10° E daylight
23 Jan - 18:22:38 10° WNW 18:27:07 82° SSW 18:31:33 10° ESE visible
23 Jan - 20:04:31 10° W 20:08:17 27° SW 20:12:01 10° SSE visible
24 Jan - 13:34:47 10° SSW 13:38:55 34° SSE 13:43:00 10° E daylight
24 Jan - 15:15:41 10° WSW 15:20:13 89° NNW 15:24:43 10° ENE daylight
24 Jan - 16:57:25 10° W 17:01:56 75° N 17:06:22 10° E visible
24 Jan - 18:39:05 10° WNW 18:43:28 57° SSW 18:47:47 10° SE visible
24 Jan - 20:21:38 10° W 20:24:20 16° SW 20:27:01 10° S visible
25 Jan - 12:11:39 10° S 12:14:17 15° SE 12:16:54 10° ESE daylight
25 Jan - 13:50:42 10° SW 13:55:09 54° SSE 13:59:33 10° ENE daylight
25 Jan - 15:32:08 10° W 15:36:40 76° N 15:41:08 10° E daylight
25 Jan - 17:13:52 10° WNW 17:18:23 86° NNE 17:22:50 10° ESE visible
25 Jan - 18:55:36 10° W 18:59:42 36° SSW 19:03:45 10° SE visible
26 Jan - 12:26:31 10° SSW 12:30:19 26° SE 12:34:06 10° E daylight
26 Jan - 14:06:56 10° WSW 14:11:29 78° SSE 14:15:59 10° ENE daylight
26 Jan - 15:48:37 10° W 15:53:09 72° N 15:57:36 10° E daylight
26 Jan - 17:30:18 10° WNW 17:34:46 72° SSW 17:39:11 10° ESE visible
26 Jan - 19:12:22 10° W 19:15:49 22° SW 19:19:14 10° SSE visible
27 Jan - 11:04:56 10° SE 11:05:47 10° SE 11:06:38 10° ESE daylight
27 Jan - 12:42:10 10° SW 12:46:29 42° SSE 12:50:46 10° E daylight
27 Jan - 14:23:19 10° W 14:27:53 83° NNW 14:32:24 10° ENE daylight
27 Jan - 16:05:05 10° WNW 16:09:36 78° N 16:14:05 10° E daylight
27 Jan - 17:46:45 10° WNW 17:51:04 48° SSW 17:55:20 10° SE visible
27 Jan - 19:29:58 10° WSW 19:31:49 12° SW 19:33:39 10° SSW visible
28 Jan - 11:18:29 10° S 11:21:46 19° SE 11:25:01 10° E daylight
28 Jan - 12:58:13 10° WSW 13:02:45 64° SSE 13:07:14 10° ENE daylight
28 Jan - 14:39:47 10° W 14:44:22 73° N 14:48:50 10° E daylight
28 Jan - 16:21:31 10° WNW 16:26:03 86° SSW 16:30:30 10° ESE daylight
28 Jan - 18:03:21 10° W 18:07:15 30° SW 18:11:07 10° SSE visible
29 Jan - 11:33:46 10° SSW 11:37:52 32° SE 11:41:54 10° E daylight
29 Jan - 13:14:31 10° WSW 13:19:07 87° SSE 13:23:39 10° ENE daylight
29 Jan - 14:56:16 10° W 15:00:50 74° N 15:05:18 10° E daylight
29 Jan - 16:37:56 10° WNW 16:42:24 62° SSW 16:46:47 10° SE daylight
29 Jan - 18:20:19 10° W 18:23:19 18° SW 18:26:18 10° S visible
30 Jan - 10:10:53 10° SSE 10:13:14 14° SE 10:15:35 10° ESE daylight
30 Jan - 11:49:36 10° SW 11:54:04 51° SSE 11:58:29 10° ENE daylight
30 Jan - 13:30:57 10° W 13:35:33 78° N 13:40:05 10° E daylight
30 Jan - 15:12:43 10° WNW 15:17:17 84° N 15:21:46 10° E daylight
30 Jan - 16:54:26 10° W 16:58:39 40° SSW 17:02:48 10° SE visible
31 Jan - 10:25:32 10° SSW 10:29:16 24° SE 10:32:57 10° E daylight
31 Jan - 12:05:46 10° WSW 12:10:22 74° SSE 12:14:55 10° ENE daylight
31 Jan - 13:47:27 10° W 13:52:02 72° N 13:56:32 10° E daylight
31 Jan - 15:29:09 10° WNW 15:33:41 76° SSW 15:38:09 10° ESE daylight
31 Jan - 17:11:09 10° W 17:14:48 25° SW 17:18:23 10° SSE visible
01 Feb - 10:41:05 10° SW 10:45:24 39° SSE 10:49:40 10° E daylight
01 Feb - 12:22:09 10° WSW 12:26:46 85° NNW 12:31:20 10° ENE daylight
01 Feb - 14:03:55 10° W 14:08:30 77° N 14:13:01 10° E daylight
01 Feb - 15:45:35 10° WNW 15:50:00 52° SSW 15:54:20 10° SE daylight
01 Feb - 17:28:27 10° WSW 17:30:48 14° SW 17:33:07 10° SSW visible
